Ephrata, WA

1:20 AM PDT on May 23, 2018 (GMT -0700)
Ephrata Municipal

Weather History for KEPH - August, 2012

Change the Weather History Date:

Thursday, August 23, 2012

  Actual Average Record
Temperature  
Mean Temperature 70 °F 71 °F  
Max Temperature 81 °F 86 °F 104 °F (1970)
Min Temperature 58 °F 57 °F 37 °F (1992)
Degree Days  
Heating Degree Days 0 0  
Month to date heating degree days 0 0  
Since 1 June heating degree days 87 68  
Since 1 July heating degree days 3 8  
Cooling Degree Days 5 7  
Month to date cooling degree days 307 209  
Year to date cooling degree days 739 649  
Since 1 June cooling degree days 710 612  
Growing Degree Days 20 (Base 50)    
Moisture  
Dew Point 36 °F    
Average Humidity 34    
Maximum Humidity 49    
Minimum Humidity 19    
Precipitation  
Precipitation 0.00 in 0.00 in 0.09 in (1965)
Month to date precipitation T 0.15  
Year to date precipitation 4.84 4.62  
Sea Level Pressure  
Sea Level Pressure 29.86 in    
Wind  
Wind Speed 11 mph (WNW)    
Max Wind Speed 26 mph    
Max Gust Speed 33 mph    
Visibility 10 miles    
Events      
T = Trace of Precipitation, MM = Missing Value Source: NWS Daily Summary

Daily Weather History Graph

Daily Weather History Graph

Search for Another Location

Airport or City:

Astronomy

Aug. 23, 2012 Rise Set
Actual Time 6:05 AM PDT 7:54 PM PDT
Civil Twilight 5:33 AM PDT 8:26 PM PDT
Nautical Twilight 4:53 AM PDT 9:06 PM PDT
Astronomical Twilight 4:09 AM PDT 9:49 PM PDT
Moon 1:32 PM PDT 10:52 PM PDT
Length of Visible Light 14h 53m
Length of Day
13h 48m
Waxing Crescent, 41% of the Moon is Illuminated
Aug 23
Waxing Crescent
Aug 24
First Quarter
Aug 31
Full
Sep 8
Last Quarter
Sep 15
New

Hourly Weather History & Observations

Time (PDT) Temp. Dew Point Humidity Pressure Visibility Wind Dir Wind Speed Gust Speed Precip Events Conditions
12:53 AM 66.0 °F 41.0 °F 40% 29.86 in 10.0 mi WNW 12.7 mph 17.3 mph N/A   Clear
1:53 AM 64.9 °F 39.9 °F 40% 29.86 in 10.0 mi Variable 5.8 mph - N/A   Clear
2:53 AM 62.1 °F 41.0 °F 46% 29.87 in 10.0 mi NW 9.2 mph - N/A   Clear
3:53 AM 61.0 °F 41.0 °F 48% 29.87 in 10.0 mi NNW 6.9 mph - N/A   Clear
4:53 AM 59.0 °F 39.9 °F 49% 29.87 in 10.0 mi WNW 5.8 mph - N/A   Clear
5:53 AM 59.0 °F 39.9 °F 49% 29.88 in 10.0 mi NNW 6.9 mph - N/A   Clear
6:53 AM 59.0 °F 39.9 °F 49% 29.90 in 10.0 mi WNW 8.1 mph - N/A   Clear
7:53 AM 63.0 °F 39.9 °F 43% 29.90 in 10.0 mi North 4.6 mph - N/A   Clear
8:53 AM 66.9 °F 39.0 °F 36% 29.90 in 10.0 mi NW 4.6 mph - N/A   Clear
9:53 AM 72.0 °F 37.9 °F 29% 29.90 in 10.0 mi Variable 4.6 mph - N/A   Clear
10:53 AM 72.0 °F 39.9 °F 31% 29.89 in 10.0 mi ESE 4.6 mph - N/A   Clear
11:53 AM 73.9 °F 39.0 °F 28% 29.88 in 10.0 mi SE 9.2 mph - N/A   Clear
12:53 PM 77.0 °F 35.1 °F 22% 29.86 in 10.0 mi SSW 12.7 mph - N/A   Clear
1:53 PM 78.1 °F 35.1 °F 21% 29.85 in 10.0 mi SSW 13.8 mph 23.0 mph N/A   Clear
2:53 PM 79.0 °F 34.0 °F 20% 29.83 in 10.0 mi SSW 15.0 mph 19.6 mph N/A   Clear
3:53 PM 80.1 °F 36.0 °F 20% 29.82 in 10.0 mi SW 11.5 mph - N/A   Clear
4:53 PM 79.0 °F 37.0 °F 22% 29.81 in 10.0 mi SW 9.2 mph - N/A   Clear
5:53 PM 79.0 °F 32.0 °F 18% 29.80 in 10.0 mi WNW 16.1 mph 23.0 mph N/A   Clear
6:00 PM 78.8 °F 30.2 °F 17% 29.82 in 10.0 mi WNW 19.6 mph 24.2 mph N/A   Clear
6:53 PM 73.9 °F 30.9 °F 21% 29.81 in 10.0 mi WNW 21.9 mph - N/A   Clear
7:53 PM 69.1 °F 28.0 °F 22% 29.81 in 10.0 mi WNW 23.0 mph 33.4 mph N/A   Clear
8:53 PM 66.0 °F 28.9 °F 25% 29.82 in 10.0 mi WNW 20.7 mph 32.2 mph N/A   Clear
9:53 PM 64.0 °F 28.0 °F 26% 29.83 in 10.0 mi Variable 3.5 mph 20.7 mph N/A   Clear
10:53 PM 64.0 °F 32.0 °F 30% 29.85 in 10.0 mi NW 20.7 mph 31.1 mph N/A   Clear
11:53 PM 62.1 °F 32.0 °F 32% 29.89 in 10.0 mi Variable 6.9 mph - N/A   Partly Cloudy